| time (UTC) | temp C | wind direction | speed KPH | gust KPH | rain 1hr cm | rain 24hr cm | rain mn cm | humidity % | barometer mb |
| 20260505041528 | 25 | 227 | 11.3 | 16.1 | 0.00 | 0.00 | 0.00 | 24 | 996.4 |
| 20260505040026 | 25 | 230 | 20.9 | 25.7 | 0.00 | 0.00 | 0.00 | 24 | 996.4 |
| 20260505034529 | 26 | 263 | 19.3 | 25.7 | 0.00 | 0.00 | 0.00 | 21 | 996.2 |
| 20260505033044 | 26 | 245 | 20.9 | 25.7 | 0.00 | 0.00 | 0.00 | 22 | 995.7 |
| 20260505031529 | 26 | 252 | 22.5 | 25.7 | 0.00 | 0.00 | 0.00 | 21 | 995.6 |
| 20260505030029 | 26 | 243 | 24.1 | 27.4 | 0.00 | 0.00 | 0.00 | 22 | 995.5 |
| 20260505024522 | 26 | 253 | 27.4 | 33.8 | 0.00 | 0.00 | 0.00 | 21 | 995.6 |
| 20260505023022 | 27 | 250 | 25.7 | 35.4 | 0.00 | 0.00 | 0.00 | 21 | 995.6 |
| 20260505021520 | 27 | 254 | 32.2 | 41.8 | 0.00 | 0.00 | 0.00 | 20 | 995.3 |
| 20260505020019 | 27 | 254 | 40.2 | 53.1 | 0.00 | 0.00 | 0.00 | 19 | 995.2 |
| 20260505014522 | 27 | 262 | 37.0 | 48.3 | 0.00 | 0.00 | 0.00 | 19 | 995.2 |
| 20260505013020 | 27 | 268 | 40.2 | 48.3 | 0.00 | 0.00 | 0.00 | 18 | 995.1 |
| 20260505011520 | 28 | 248 | 32.2 | 56.3 | 0.00 | 0.00 | 0.00 | 18 | 995.2 |
| 20260505010016 | 28 | 259 | 45.1 | 61.2 | 0.00 | 0.00 | 0.00 | 17 | 994.9 |
| 20260505004536 | 28 | 252 | 45.1 | 59.5 | 0.00 | 0.00 | 0.00 | 16 | 995.2 |
| 20260505003020 | 29 | 265 | 51.5 | 67.6 | 0.00 | 0.00 | 0.00 | 16 | 994.9 |
| 20260505001521 | 29 | 266 | 56.3 | 72.4 | 0.00 | 0.00 | 0.00 | 16 | 995.2 |
| 20260505000022 | 30 | 269 | 48.3 | 66.0 | 0.00 | 0.00 | 0.00 | 16 | 995.1 |
| 20260504234528 | 30 | 273 | 51.5 | 64.4 | 0.00 | 0.00 | 0.00 | 16 | 995.4 |
| 20260504233019 | 30 | 243 | 43.5 | 61.2 | 0.00 | 0.00 | 0.00 | 16 | 995.8 |
| 20260504231532 | 29 | 275 | 33.8 | 51.5 | 0.00 | 0.00 | 0.00 | 16 | 996.1 |
| 20260504230016 | 29 | 277 | 35.4 | 53.1 | 0.00 | 0.00 | 0.00 | 15 | 996.2 |
| 20260504224518 | 29 | 261 | 43.5 | 56.3 | 0.00 | 0.00 | 0.00 | 15 | 996.3 |
| 20260504223015 | 29 | 257 | 37.0 | 51.5 | 0.00 | 0.00 | 0.00 | 15 | 996.5 |
| 20260504221512 | 29 | 270 | 29.0 | 56.3 | 0.00 | 0.00 | 0.00 | 15 | 996.8 |
| 20260504220012 | 30 | 284 | 45.1 | 56.3 | 0.00 | 0.00 | 0.00 | 15 | 996.9 |
| 20260504214516 | 30 | 261 | 40.2 | 49.9 | 0.00 | 0.00 | 0.00 | 13 | 996.9 |
| 20260504213010 | 30 | 281 | 46.7 | 61.2 | 0.00 | 0.00 | 0.00 | 13 | 997.0 |
| 20260504211503 | 29 | 261 | 45.1 | 61.2 | 0.00 | 0.00 | 0.00 | 13 | 997.3 |
| 20260504210001 | 30 | 284 | 45.1 | 57.9 | 0.00 | 0.00 | 0.00 | 13 | 997.4 |
| 20260504204638 | 30 | 261 | 43.5 | 61.2 | 0.00 | 0.00 | 0.00 | 12 | 997.7 |
| 20260504203059 | 29 | 262 | 37.0 | 64.4 | 0.00 | 0.00 | 0.00 | 14 | 997.8 |
| 20260504201559 | 29 | 254 | 45.1 | 64.4 | 0.00 | 0.00 | 0.00 | 13 | 998.2 |
| 20260504200057 | 29 | 265 | 45.1 | 64.4 | 0.00 | 0.00 | 0.00 | 13 | 998.3 |
| 20260504194555 | 29 | 262 | 43.5 | 67.6 | 0.00 | 0.00 | 0.00 | 15 | 998.6 |
| 20260504193049 | 28 | 277 | 46.7 | 57.9 | 0.00 | 0.00 | 0.00 | 16 | 999.0 |
| 20260504191544 | 28 | 270 | 30.6 | 54.7 | 0.00 | 0.00 | 0.00 | 17 | 999.2 |
| 20260504190047 | 27 | 242 | 35.4 | 56.3 | 0.00 | 0.00 | 0.00 | 21 | 999.4 |
| 20260504184539 | 27 | 273 | 37.0 | 59.5 | 0.00 | 0.00 | 0.00 | 24 | 999.7 |
| 20260504183034 | 27 | 265 | 41.8 | 53.1 | 0.00 | 0.00 | 0.00 | 26 | 999.9 |
| 20260504181551 | 26 | 267 | 37.0 | 46.7 | 0.00 | 0.00 | 0.00 | 26 | 1000.2 |
| 20260504180049 | 26 | 252 | 30.6 | 45.1 | 0.00 | 0.00 | 0.00 | 27 | 1000.5 |
| 20260504174551 | 26 | 279 | 37.0 | 48.3 | 0.00 | 0.00 | 0.00 | 25 | 1000.9 |
| 20260504173046 | 26 | 286 | 32.2 | 48.3 | 0.00 | 0.00 | 0.00 | 28 | 1000.9 |
| 20260504171543 | 26 | 299 | 38.6 | 54.7 | 0.00 | 0.00 | 0.00 | 27 | 1000.9 |
| 20260504081558 | 17 | 16 | 9.7 | 14.5 | 0.00 | 0.00 | 0.00 | 65 | 1001.4 |